Location: Be?chatów
(51.3665°N, 19.3745°E)
Time: 21:24:03
(UTC+00:00)

Cosmos 2181 Rocket - Pass Details

Date: 19 May 2025
Orbit: 952 x 1013 km, 82.9° (Epoch: 16 June)

Event Time Altitude Azimuth Distance (km) Brightness Sun altitude
Exits shadow 20:58:42 11° 198° (SSW) 2,635 5.8 -15.4°
Maximum altitude 21:04:42 71° 282° (WNW) 1,051 4.3 -15.7°
Drops below altitude 10° 21:11:06 10° 7° (N) 2,787 7.4 -16.1°
Sets 21:13:41 0° 10° (N) 3,747 8.1 -16.2°
